ARIANE 44LP DEB, 44573

Orbit data source: Space-Track

ARIANE 44LP DEB, 44573 is space debris in HEO originally from a launch on Thu, 10 Sep 1992 UTC launched from the French Guiana (FRGUI). Debris objects in space refer to the collection of defunct objects orbiting the Earth. Examples of debris include non-operational satellites, rocket bodies, and fragments generated from explosions, collisions, or faulty payload assembly.

Not visible in the next 10 days
Identifier
44573, 1992-060J
Orbit
HEO
Country
Flag of FRFR
Related business
Manufacturer
Unknown
Mission
Spacecraft
Bus & Motor
Unknown
Mass
Unknown
Launch date (UTC)
1992-09-10 (34 years ago)
Launch vehicle
Unknown
Launch site
French Guiana (FRGUI)
Object type
Payload
Rocket body
Debris
Shape & HBR
Unknown shape, 1.1 m
Radar Cross Section
Medium (>0.1 m² and <1 m²)

Expand to show TLE details & history
Last TLE update: 2 days ago

TLE from 2 days ago
0 ARIANE 44LP DEB
1 44573U 92060J   26171.26983553 -.00000272  00000-0 -28953-2 0  9990
2 44573   7.1536 329.0167 7163169  38.8916 270.4359  2.23382473 99601
Epoch: 2026-06-20T06:28Z
TLE epoch observation values (Epoch: 2026-06-20T06:28:33.789Z)
Latitude
-6.41715°
Longitude
-153.30437°
Altitude
28,151.976 km
Speed
2.639 km/s
True Right ascension
14h 09m 17s
True Declination
-6° 24' 33"
Sunlit
Object was in daylight at epoch
Visualization orbit readout
Latitude
Unknown
Longitude
Unknown
Altitude
Unknown
Speed
Unknown
Apparent Right ascension
Unknown
Apparent Declination
Unknown
Sunlit
N/A
Visualization observer readout
Local Sidereal Time
21:23:45
Azimuth
Unknown
Elevation
Unknown
Doppler factor
Unknown
Orbital elements
Apogee altitude
36,056.796 km
Perigee altitude
635.762 km
Semi-major axis
24,724.416 km
Eccentricity
0.71632
Inclination
7.1536°
RAAN
329.0167°
Arg. of periapsis
38.8916°
True anomaly
204.54209°
Mean anomaly
270.4359°
Eccentric anomaly
236.29348°
Mean motion
0.55828 °/min
Orbital period
644.83 mins
BSTAR
-0.0028953
Loading maneuver chart data...
Computing Atmospheric mass density...
Loading historical data...
Loading historical data...
Loading historical data...
Loading historical data...
Loading historical data...
Loading historical data...
Loading historical data...

Documentation

Showing up to 5 results
|